WARP-01 (47924 NORAD) Tracking and Keplerian Element Data

This shows tracking and keplerian element data for the satellite.

Feedback or suggestion? Click here.




ElementValue
Catalog47924
NameWARP-01
Epoch Orbit1562
Epoch Day173.77794981
Epoch Year2021
RAAN313.7603
Inclination51.6424
Eccentricity0.0004854
Argument of Perigee127.9887
Mean Anonmoly232.1542
Mean Motion15.51915322
Decay Rate0.00012058
L11 47924U 98067SA 21173.77794981 .00012058 00000-0 20462-3 0 9995
L22 47924 51.6424 313.7603 0004854 127.9887 232.1542 15.51915322 15623

Live tracking and technical data element details for WARP-01 (NORAD 47924). WARP-01 can be tracked NOW for your location showing map with azimuth and elevation plus other details from your city location.

Track the satellite on the map from your city or location and see movement details for azimuth, elevation, latitude, longitude, range, height, and movement on the map or in text.







IsCatalogInMostPopularTable: catalog: 47924, numindb: 30
Update: records affected: 1



GetName: 47924 WARP-01

Hit Count: updated at: Thu, 24 Jun 2021 03:03:47 GMT